GFSNGP_sfc_wetblb_126.txt.gz
Wetbulb
25.08 26.81 27.93 28.10 29.91 30.06 30.38 30.02 26.59 29.39 32.50 35.86 39.27 41.19 41.85 42.36 41.66 41.16 44.19 45.56 44.97 44.37 44.05 43.38 42.76 42.92 41.61 41.56 42.83 44.13 44.42 45.26 46.07 48.48 52.13 55.41 58.35 58.21 58.04 57.26 56.55 56.13 55.09 54.42
24.06 27.90 29.40 28.40 30.65 30.58 32.04 30.57 29.25 29.51 31.20 36.43 41.47 42.21 41.28 41.21 41.19 40.78 39.98 40.64 43.30 44.18 43.86 42.80 41.59 40.68 40.45 39.64 39.58 40.70 41.17 41.23 42.43 44.77 47.23 49.51 50.79 55.95 57.25 56.69 55.73 54.86 53.68 54.38
20.48 26.91 27.11 26.59 27.91 28.92 31.30 31.26 30.86 25.62 31.34 35.03 40.46 40.64 40.92 41.39 41.31 40.58 40.44 40.01 39.17 38.73 39.00 41.76 40.37 39.72 38.02 38.28 39.83 39.36 39.08 39.24 39.95 40.66 42.74 44.29 46.65 49.49 56.39 55.97 55.31 54.56 54.40 54.30
21.16 25.02 14.66 27.67 32.89 31.88 30.12 32.22 32.48 31.20 32.35 35.32 38.63 38.32 39.05 41.78 42.04 40.01 39.12 38.42 37.45 36.91 36.66 39.19 38.83 37.50 37.34 37.28 37.67 37.62 37.35 37.21 37.79 38.14 39.16 40.89 42.48 44.01 45.96 50.50 55.12 54.52 54.02 53.80
23.28 22.10 26.24 26.72 28.66 27.52 27.32 29.00 32.14 31.05 32.37 34.94 38.47 37.23 34.86 37.19 39.06 37.99 37.02 36.46 35.70 35.74 35.48 36.99 36.03 36.32 35.43 35.00 35.73 35.62 35.05 35.20 35.49 35.89 36.73 37.58 37.83 39.32 42.49 44.25 48.95 54.10 54.18 53.50
24.18 19.73 17.43 24.14 30.09 33.00 32.30 24.81 31.94 32.24 32.52 33.37 35.04 27.46 30.70 35.03 35.71 36.14 36.27 35.45 34.21 33.87 33.25 33.62 34.20 34.74 33.50 33.06 33.06 33.43 33.94 33.69 33.78 33.73 34.58 34.77 35.74 37.18 38.86 41.67 44.79 48.36 43.03 41.99
22.70 20.40 23.48 28.59 30.31 32.24 22.84 22.40 32.39 32.52 33.70 34.83 30.75 33.35 34.84 35.42 33.61 33.71 33.71 33.92 33.80 32.41 30.53 30.78 32.64 33.78 32.87 32.14 31.91 33.20 33.41 32.99 32.11 31.82 32.59 32.75 34.45 36.04 36.59 38.26 37.00 34.44 33.37 33.37
21.80 19.04 15.30 30.43 30.09 23.71 28.39 32.08 33.67 33.50 34.80 34.80 35.28 34.12 32.55 32.20 31.54 31.06 30.16 30.79 31.19 29.56 28.89 30.00 30.96 32.32 31.73 30.41 32.16 32.54 31.83 30.77 30.35 30.02 30.53 31.04 30.59 32.43 34.73 34.91 33.31 31.94 32.09 30.78
22.30 22.56 31.89 31.94 29.90 32.19 33.67 31.72 32.81 34.12 36.32 35.58 34.20 33.08 31.35 29.84 29.71 29.14 28.58 28.18 29.41 28.07 27.97 29.27 30.84 31.19 30.38 31.22 31.35 31.10 30.15 29.03 28.81 29.01 28.85 29.35 27.80 28.17 30.50 32.65 32.70 31.73 29.36 28.13
26.74 29.75 30.37 31.11 32.33 32.23 33.41 31.55 33.61 35.06 35.13 35.37 31.77 31.53 29.33 28.36 27.84 27.65 27.42 26.71 27.54 27.08 26.82 27.37 29.57 30.41 30.91 31.58 31.11 29.81 28.89 28.11 27.88 27.56 27.42 27.98 28.18 27.86 27.38 27.99 31.49 31.11 30.95 28.52
26.18 30.03 31.21 30.99 31.09 30.70 32.31 33.89 32.79 34.46 34.71 34.47 31.55 29.32 28.79 27.02 26.40 26.27 26.58 26.26 26.39 25.85 25.84 26.23 28.38 29.21 30.62 30.89 30.65 28.65 28.14 28.19 27.24 26.98 26.81 26.59 27.38 27.34 27.35 28.16 28.82 27.03 26.38 26.75
19.51 29.57 28.40 30.68 31.72 31.60 31.67 31.83 33.67 32.07 31.95 34.67 31.62 28.75 27.89 26.98 26.11 24.67 24.68 24.60 23.90 24.35 24.60 25.18 26.42 28.07 29.50 30.56 30.19 28.32 27.13 26.83 26.50 26.30 25.82 25.69 25.67 25.93 29.89 29.10 29.52 29.62 29.12 27.62
26.61 33.11 33.00 31.69 31.44 31.46 29.93 33.16 33.79 31.45 30.84 29.93 31.97 28.67 26.79 25.70 26.65 25.41 24.19 24.06 23.01 22.81 23.37 23.71 24.23 26.52 28.76 29.25 28.67 28.41 26.56 26.48 25.61 24.97 24.48 24.33 24.41 24.28 23.23 27.79 29.43 29.51 29.34 29.42
31.73 32.05 29.01 25.88 22.88 29.03 30.31 31.37 31.90 30.22 29.53 28.70 29.46 30.00 27.63 25.60 24.98 23.64 22.74 20.88 21.28 19.76 19.61 20.10 20.30 23.77 26.20 27.95 25.88 22.66 21.26 24.76 25.11 24.47 24.11 23.60 23.60 24.05 24.51 23.78 21.87 22.96 28.08 27.86
30.93 34.77 30.78 27.22 28.86 27.67 28.52 28.51 26.85 25.82 25.88 25.91 27.07 27.24 25.62 24.21 23.39 22.93 22.95 18.02 13.28 15.43 16.96 16.44 18.15 21.66 25.37 25.29 23.55 21.07 19.95 18.82 17.34 23.32 24.24 23.41 20.86 22.57 24.16 23.30 22.05 21.68 22.16 22.22
27.48 27.43 26.30 24.83 25.30 24.57 23.71 23.78 23.17 23.25 23.56 24.99 24.50 25.30 24.58 24.36 24.67 23.80 23.14 22.44 20.09 18.45 18.26 17.59 18.94 21.94 24.51 26.38 23.23 20.47 22.31 23.86 21.05 20.78 19.24 19.31 19.30 19.77 19.35 19.21 19.96 19.93 19.31 18.83
25.17 22.11 22.24 21.36 22.08 21.93 21.18 21.94 22.23 21.49 22.28 22.92 22.93 23.54 23.80 23.35 21.66 21.34 19.78 16.57 13.81 15.39 17.69 17.37 19.35 22.35 22.94 25.19 21.74 19.25 19.57 21.23 19.98 21.28 19.43 18.59 19.03 18.81 18.75 18.13 17.26 16.61 16.37 17.35
22.36 21.13 20.28 19.94 20.10 20.17 19.85 20.32 20.75 19.76 19.87 20.88 20.03 17.76 16.85 15.29 12.91 11.87 13.39 13.91 15.11 13.76 16.53 20.67 23.42 24.11 24.87 26.09 24.64 22.40 21.18 21.41 21.71 19.42 19.00 17.02 18.09 18.80 17.89 17.27 16.36 15.49 15.29 14.95
21.91 20.40 19.70 19.00 19.27 19.13 18.23 18.43 17.76 16.90 16.55 18.19 15.80 11.97 13.50 14.66 14.67 10.15 8.64 11.75 14.15 16.06 15.78 20.68 23.63 23.87 24.50 26.39 24.00 21.69 19.90 19.24 20.01 19.68 18.36 15.56 15.89 17.07 15.56 15.12 14.27 13.73 13.85 13.30
19.38 20.29 19.29 17.75 17.69 17.87 17.14 16.67 18.31 17.38 17.78 16.60 12.05 10.47 12.39 12.78 14.49 11.54 8.68 10.56 14.89 18.44 20.18 20.47 21.38 21.80 22.91 24.91 23.60 21.51 21.37 19.94 20.57 18.34 16.01 14.92 12.79 11.40 11.56 12.08 12.81 10.93 9.50 9.33
16.66 16.89 17.01 16.81 14.36 13.97 12.21 14.24 14.78 15.61 15.20 14.78 13.84 10.13 11.47 8.19 12.51 13.00 12.88 13.07 15.17 18.54 18.90 18.57 19.89 20.96 22.52 22.71 23.59 21.25 19.23 18.31 17.58 17.21 17.49 13.70 11.35 10.76 8.95 7.32 6.80 5.67 6.55 7.04
12.34 10.73 9.07 9.90 10.22 8.23 9.67 10.20 12.83 8.26 7.20 9.28 10.76 10.25 9.40 10.03 8.41 8.33 6.62 10.46 14.76 13.22 16.14 18.13 19.21 19.96 21.18 21.37 22.22 20.66 21.18 20.24 19.02 18.98 17.33 15.38 13.89 10.53 7.21 6.60 5.60 4.53 3.67 1.33
8.16 8.07 6.47 4.79 5.07 7.21 5.88 5.67 4.04 4.40 3.61 2.67 6.13 11.21 11.52 9.84 9.89 8.92 8.79 14.91 15.24 15.14 16.43 17.05 17.43 17.40 19.18 19.78 18.93 18.57 18.52 17.81 18.20 18.37 16.76 14.81 13.57 9.43 8.42 7.77 5.86 3.66 1.67 1.96
7.75 8.08 8.49 8.94 6.21 9.06 7.93 5.96 4.83 4.96 4.00 4.13 2.44 1.84 10.42 6.35 8.23 13.01 10.61 13.93 13.53 10.63 11.55 16.50 16.71 17.14 16.23 16.55 17.44 17.79 17.43 16.01 15.34 15.33 14.74 13.28 13.49 12.11 9.63 8.58 7.67 3.27 0.75 0.70
12.09 9.41 9.16 11.95 14.63 14.73 12.40 11.53 10.59 11.44 11.32 6.70 6.31 8.66 11.72 9.56 6.42 6.78 5.43 7.04 11.07 9.59 9.48 11.67 13.97 14.93 14.84 14.52 14.52 15.08 15.47 15.33 14.61 13.36 12.63 12.23 11.51 9.88 8.47 8.39 7.89 6.18 3.65 1.55
14.73 12.93 9.52 8.79 9.47 9.45 10.49 14.52 7.47 10.85 11.75 6.25 5.50 1.54 2.87 3.86 10.00 9.60 6.02 6.00 7.51 6.49 6.76 9.36 10.75 11.86 12.20 12.55 12.01 12.01 12.41 13.27 12.92 11.86 10.42 8.69 7.60 8.10 7.72 7.24 6.01 4.52 2.75 0.81
9.91 15.80 15.56 12.79 9.87 10.01 8.46 8.78 6.00 3.68 5.44 3.46 3.52 3.53 9.24 5.67 6.59 8.19 6.56 4.59 2.63 1.36 3.52 7.04 8.48 10.02 9.65 10.32 11.13 9.90 10.28 11.65 11.81 11.14 8.75 9.23 9.23 6.99 5.11 3.49 2.25 2.23 2.02 2.65

GFSNGP_sfc_wetblb_129.txt.gz
Wetbulb
24.67 26.12 25.50 24.36 26.73 28.66 27.61 29.09 24.60 25.96 27.00 32.47 32.89 36.43 40.55 41.38 40.92 39.96 39.14 38.41 38.79 40.65 39.56 39.28 38.96 39.24 39.70 40.07 40.92 41.90 42.09 42.24 42.63 45.45 48.32 49.97 52.56 57.43 58.11 57.39 57.41 57.33 56.07 55.15
22.62 26.15 26.51 24.79 29.39 27.79 30.74 30.16 27.43 27.28 26.65 32.90 36.93 38.26 40.98 41.21 40.37 39.17 38.34 37.10 37.05 37.98 38.67 37.37 36.85 36.72 37.62 38.54 39.11 40.12 39.69 39.59 40.59 42.10 43.92 45.04 47.56 50.06 56.35 57.11 56.13 54.75 54.40 54.19
19.59 25.06 24.98 24.53 24.93 26.39 27.53 30.66 28.65 24.15 29.18 33.39 33.45 33.42 33.92 37.54 37.21 36.34 36.30 35.40 34.27 35.14 35.35 35.64 35.37 35.67 35.33 36.72 38.14 37.69 37.22 37.52 37.80 38.96 40.53 41.22 43.56 45.47 47.10 50.02 55.52 54.62 54.28 53.50
20.26 23.96 11.63 24.58 32.90 30.09 27.53 31.27 29.95 30.68 31.11 33.16 34.38 34.00 33.57 34.62 34.03 33.37 33.05 32.68 32.53 33.10 34.15 34.19 34.66 34.38 34.79 34.79 36.14 35.88 35.36 35.23 35.66 36.21 37.51 38.72 39.86 40.79 42.73 45.04 48.13 53.99 53.43 53.96
21.10 21.63 24.51 26.44 29.15 26.57 25.65 26.29 29.41 30.18 31.75 33.79 35.35 32.93 32.09 33.47 33.95 33.31 32.83 32.37 31.64 31.98 31.70 32.45 33.18 33.89 33.34 32.88 33.20 33.90 33.34 33.21 33.37 34.00 34.92 35.87 36.06 37.62 39.62 40.92 43.63 47.27 52.25 53.09
22.78 18.58 12.43 22.63 29.74 30.92 30.52 21.83 29.21 31.35 30.45 33.48 33.04 25.87 29.25 34.05 32.60 31.73 31.85 31.76 30.48 30.56 30.37 30.31 31.71 34.10 32.23 31.58 31.77 31.59 32.13 32.19 32.36 32.58 33.11 32.74 33.22 35.30 37.36 39.39 41.32 40.03 38.74 37.00
21.86 21.01 21.12 28.15 29.37 31.00 21.80 18.96 30.30 31.81 33.07 33.24 30.38 31.26 33.25 33.52 31.16 31.16 30.45 29.87 30.31 29.60 28.33 29.72 31.72 33.01 31.70 30.59 30.29 31.70 31.61 31.52 30.96 30.89 31.57 31.64 29.98 32.16 35.19 36.13 35.40 34.29 32.98 32.09
20.67 17.83 14.48 29.42 29.53 23.58 27.54 30.80 31.54 32.59 34.20 32.89 32.10 33.91 32.13 30.51 29.43 28.39 27.66 27.95 28.52 27.83 28.54 29.81 30.96 31.35 30.37 29.53 30.89 31.42 30.49 29.68 29.54 29.55 29.89 30.27 28.84 28.80 32.29 34.04 33.18 32.08 32.05 32.17
21.54 20.30 29.14 30.59 29.93 31.82 32.45 30.59 31.38 32.78 34.04 33.57 31.09 30.54 29.88 27.95 27.54 27.82 27.25 26.90 27.93 27.30 27.94 28.79 30.02 30.44 29.23 30.32 30.61 30.31 29.21 28.29 28.44 28.90 28.93 29.13 28.46 28.14 28.94 31.04 32.21 31.81 30.55 29.80
25.45 26.52 28.96 29.90 32.46 31.87 31.95 32.43 32.43 33.76 33.85 32.58 30.03 29.52 28.79 27.56 25.91 26.28 26.29 25.66 26.38 26.31 25.90 26.34 28.58 29.59 30.01 30.52 30.69 29.19 28.17 27.67 27.72 27.48 27.36 28.04 28.25 28.14 27.43 27.57 28.28 27.94 27.81 28.07
25.47 28.59 31.01 31.75 31.50 29.88 31.24 33.64 33.35 33.05 33.30 31.96 30.17 28.16 27.48 26.43 24.57 24.60 24.77 24.41 24.37 24.01 24.16 24.99 27.05 28.57 29.56 30.00 30.06 28.34 27.71 27.33 26.94 26.53 26.52 26.62 27.62 27.34 27.02 27.97 28.17 26.43 26.35 26.79
18.61 27.48 26.71 29.92 32.25 30.53 30.29 30.92 33.76 30.16 29.94 32.02 29.37 26.84 26.57 25.69 25.72 23.78 23.65 23.66 23.21 23.20 23.59 23.77 25.07 27.36 28.42 29.07 28.88 27.98 26.64 25.78 25.49 25.56 25.59 25.16 25.88 26.37 30.03 29.35 29.51 29.13 28.98 27.47
26.20 32.07 31.69 32.85 30.21 29.99 29.94 32.68 31.77 28.23 28.04 27.78 29.84 26.71 25.22 24.18 24.28 24.59 22.69 22.12 22.37 21.47 21.81 22.32 23.19 24.70 26.20 27.52 26.08 25.51 25.90 25.34 25.07 24.82 24.40 23.59 24.36 24.73 23.35 25.51 28.95 29.27 29.44 29.18
31.02 31.20 28.12 24.87 22.70 27.84 29.78 29.69 29.62 28.12 27.29 26.87 27.78 27.70 25.50 24.00 23.21 18.31 17.24 16.80 16.66 17.33 18.41 19.27 19.27 21.83 24.05 24.77 21.37 20.02 19.16 23.06 25.09 24.82 24.24 21.84 21.03 21.61 23.45 22.16 20.77 20.97 24.14 26.77
31.86 31.03 27.15 26.59 27.14 26.13 26.37 26.74 25.20 24.55 24.74 25.17 25.69 25.52 24.64 23.62 22.64 22.37 20.47 18.94 14.76 15.96 17.04 18.81 18.70 21.16 23.06 23.77 18.42 16.76 17.25 16.03 16.12 16.61 16.07 16.04 17.75 21.78 22.38 21.59 20.25 18.64 19.64 19.69
25.85 25.41 25.65 25.91 24.56 23.85 23.52 23.14 22.80 22.75 23.00 24.41 23.31 24.17 24.38 23.78 23.49 22.10 21.46 20.65 18.94 15.98 16.97 17.83 18.42 21.97 22.78 21.63 18.75 16.46 15.61 18.12 18.14 18.31 17.75 16.64 16.79 16.60 16.38 16.05 15.98 15.32 14.99 15.30
24.68 23.10 22.83 21.57 22.85 21.68 20.76 21.43 21.54 20.77 21.62 21.90 21.97 22.38 22.60 22.19 20.49 19.62 17.26 15.73 15.30 14.99 17.06 18.26 19.28 22.82 23.29 23.97 18.44 16.78 17.83 19.14 17.63 18.90 17.42 16.75 16.52 16.21 15.44 14.15 13.77 13.75 13.26 14.33
22.44 21.17 20.56 20.86 20.68 20.41 19.68 20.44 19.64 19.14 19.33 20.49 18.26 16.06 15.46 14.49 12.58 10.56 9.14 9.37 13.48 16.43 17.57 18.98 20.96 23.32 23.38 25.20 24.42 22.51 20.26 20.42 19.60 17.70 17.41 15.65 16.23 15.94 13.66 13.32 13.46 12.40 11.92 12.76
21.64 20.18 19.71 19.56 19.92 19.11 18.26 18.45 17.30 17.59 17.31 17.16 15.81 12.14 11.10 13.83 15.27 11.47 10.13 11.27 11.02 14.55 15.87 20.02 22.46 22.56 22.90 23.88 21.97 20.72 19.64 17.31 17.67 17.39 16.64 13.11 13.16 13.99 11.18 9.45 8.93 8.56 9.91 9.71
19.90 19.87 18.86 17.39 17.51 17.56 15.92 15.72 17.68 15.96 16.56 15.22 13.19 13.36 13.31 13.23 13.48 10.12 9.59 9.92 11.76 16.04 18.66 19.97 20.48 21.14 22.22 23.68 20.48 19.77 20.20 18.75 18.88 15.76 15.83 14.92 12.61 9.99 10.47 9.06 8.12 5.51 4.25 5.83
17.10 17.47 16.89 15.74 14.50 13.54 9.55 11.59 12.03 13.32 13.47 12.82 13.89 11.75 10.49 12.04 11.61 10.42 11.46 11.99 13.99 17.05 18.02 18.55 19.54 20.22 22.12 21.99 21.73 18.92 15.88 15.19 15.88 15.69 14.42 14.02 12.19 11.60 7.94 4.94 4.41 1.42 1.98 2.16
10.19 8.09 5.55 7.15 9.55 6.47 6.74 6.94 10.43 4.96 6.10 8.23 8.46 6.00 7.00 9.13 7.86 9.37 8.11 10.91 14.05 13.57 16.39 17.47 17.88 17.59 19.93 19.91 20.80 19.30 18.23 16.41 14.82 15.50 13.52 12.58 11.45 8.78 6.35 6.45 4.21 2.29 -1.30 -3.46
8.86 8.68 5.53 3.61 4.64 5.03 1.27 2.19 0.13 0.95 2.04 1.05 4.14 7.49 7.03 9.02 7.90 7.45 8.34 14.22 15.20 13.72 15.28 15.86 16.14 16.32 16.72 17.18 17.74 16.85 16.12 15.61 15.83 13.71 13.33 12.77 10.25 9.33 8.25 5.48 4.91 4.10 2.34 2.33
6.22 6.92 6.49 6.18 4.82 8.62 7.54 4.51 2.15 2.94 1.80 3.43 -0.01 -0.56 7.64 5.18 6.71 11.43 9.45 8.18 6.50 6.06 7.57 12.76 12.73 14.40 13.86 14.69 15.21 15.02 14.31 13.65 13.84 11.91 11.89 12.28 11.15 7.43 4.07 3.83 2.95 0.64 1.99 2.48
9.48 7.61 7.51 8.92 9.90 9.73 10.05 6.99 6.85 7.16 6.31 5.03 2.98 5.29 11.45 8.72 5.37 7.64 2.16 3.22 7.57 6.32 6.71 6.66 8.75 10.70 11.21 10.72 10.73 11.12 12.19 12.03 11.35 10.96 11.11 10.93 8.82 7.05 6.87 6.13 3.10 1.61 0.73 1.07
12.13 10.05 7.55 6.48 7.87 7.33 8.84 8.95 5.95 7.02 6.63 3.61 3.95 -1.46 -0.56 0.17 4.66 3.59 0.53 0.69 2.26 3.01 2.71 2.51 3.67 5.58 7.04 9.44 9.11 8.79 8.83 9.53 7.23 8.11 8.08 8.08 6.98 4.36 3.82 3.11 2.38 1.28 -0.51 -2.10
8.37 11.94 9.99 9.39 7.82 7.65 6.39 4.50 2.45 2.39 3.74 -1.28 1.06 1.80 4.15 0.71 0.71 3.23 0.71 -1.46 -2.73 -2.73 -2.37 -1.65 0.53 2.67 2.84 5.46 6.32 7.71 8.58 7.39 7.36 7.23 7.57 7.02 6.47 5.04 4.31 1.63 -0.69 -2.63 -1.94 -1.76

GFSNGP_sfc_wetblb_132.txt.gz
Wetbulb
23.27 23.89 23.71 24.02 23.08 26.33 19.83 26.09 23.92 24.78 25.78 29.55 31.96 31.58 35.36 36.07 35.92 34.76 34.22 33.40 32.88 33.04 33.55 34.21 34.50 35.68 36.99 38.20 38.99 39.88 39.72 39.69 40.20 42.75 44.65 46.08 48.44 51.91 57.59 57.59 57.92 58.17 57.37 56.87
21.46 24.62 23.91 23.63 28.19 26.89 26.62 29.10 26.40 27.00 26.10 32.43 35.09 33.63 32.28 33.51 33.00 32.18 32.29 32.08 32.12 33.00 33.04 32.98 33.34 33.92 34.57 36.23 36.80 37.78 37.38 37.26 38.57 39.82 41.16 42.26 44.29 46.66 48.84 54.23 55.89 56.25 55.53 55.12
19.08 23.85 24.27 20.14 24.63 24.72 21.65 28.38 27.75 22.43 28.28 33.31 33.63 31.41 30.87 31.80 32.80 31.55 30.79 31.08 30.80 31.27 31.61 32.40 33.19 33.38 32.94 33.73 35.99 35.48 35.24 35.47 36.04 37.42 38.24 39.04 41.10 42.57 44.04 46.03 50.00 55.10 54.80 54.16
20.46 23.61 10.08 22.73 30.18 28.74 25.66 28.95 29.10 29.21 30.88 31.88 33.13 34.04 33.06 32.22 30.82 30.42 29.68 29.63 29.62 29.73 30.26 31.15 32.81 33.65 33.46 33.32 33.15 33.55 33.24 33.31 33.85 34.72 35.67 36.37 37.16 38.53 40.06 42.78 44.95 47.70 53.27 53.56
17.94 21.08 23.75 23.85 27.73 25.28 24.20 24.13 28.66 27.75 30.69 33.01 32.83 34.49 32.71 32.59 31.70 30.31 29.40 29.77 29.50 29.47 30.16 31.16 31.65 33.38 32.02 31.65 31.86 31.36 30.99 31.42 31.84 32.48 33.42 33.62 33.36 35.07 37.39 39.25 42.18 42.47 41.93 44.58
23.14 18.74 10.69 21.89 28.27 30.08 29.49 20.53 28.97 29.68 29.50 31.40 31.03 23.94 27.83 31.98 31.09 29.44 29.22 29.20 28.26 29.00 30.19 30.03 30.86 32.65 31.17 30.08 30.30 29.86 30.16 30.51 31.17 31.37 31.76 31.38 30.34 32.85 35.46 37.57 37.57 37.36 35.25 34.93
21.77 19.05 20.81 26.76 29.01 30.36 21.13 18.26 30.04 30.90 31.70 31.68 29.05 31.28 32.32 31.56 30.10 29.30 28.45 27.90 28.69 28.85 28.75 29.07 30.74 31.49 30.13 29.38 28.72 30.27 30.47 30.30 30.08 30.04 30.46 30.57 30.83 31.82 33.54 35.24 34.94 33.90 32.79 32.47
20.44 18.11 14.56 28.41 27.72 23.63 26.05 30.58 30.74 31.28 33.24 33.07 32.20 31.96 30.90 28.85 27.21 27.57 26.44 26.33 27.25 27.38 27.55 28.85 29.94 30.07 29.00 28.46 29.76 30.47 29.57 28.93 28.86 29.03 29.51 29.66 29.57 30.20 31.47 33.11 33.00 32.05 32.04 31.54
21.49 19.39 27.79 28.77 27.81 30.70 30.40 30.91 31.23 31.54 34.37 33.89 31.18 29.57 29.54 27.46 25.39 25.86 25.23 24.72 26.03 25.25 26.09 27.72 28.65 29.29 27.99 29.08 29.90 29.52 28.92 27.83 27.69 28.58 28.80 28.86 28.08 28.04 28.75 29.67 29.38 29.43 29.31 27.97
25.87 25.39 27.70 29.19 30.18 30.64 29.59 29.93 33.31 33.17 34.11 33.86 29.88 28.86 27.75 26.44 24.23 23.79 24.12 23.57 24.21 24.07 23.91 24.58 27.04 28.50 28.54 28.80 29.97 28.78 27.14 27.10 27.23 26.82 27.43 28.11 28.02 27.98 27.09 27.05 26.99 26.55 26.57 26.41
25.57 28.09 29.04 29.58 29.48 28.98 29.14 31.71 33.21 33.18 32.16 31.76 29.46 27.07 26.22 25.54 23.92 23.42 23.70 23.48 23.69 22.90 23.41 23.62 25.05 26.98 27.81 27.76 28.54 27.70 26.97 26.48 26.23 26.37 26.18 26.56 27.80 27.78 27.30 28.08 27.85 26.06 26.13 26.43
16.78 26.01 26.19 27.95 29.55 29.81 28.98 31.76 30.90 29.45 28.52 29.60 28.51 25.31 25.14 23.17 24.21 23.40 21.97 22.60 22.49 22.51 22.62 22.58 23.71 24.95 25.93 26.33 25.65 26.56 25.87 25.64 25.27 25.29 24.50 24.82 25.16 25.32 28.04 28.31 29.50 29.39 29.28 27.39
23.19 29.78 28.45 29.51 28.81 28.30 27.72 31.10 29.99 25.26 26.33 26.30 29.10 26.40 24.72 23.52 23.09 22.37 21.40 20.84 20.60 20.42 21.54 22.24 22.91 23.78 25.43 24.79 24.48 24.08 24.66 25.63 25.17 25.20 23.88 20.91 21.06 22.37 21.90 24.33 26.07 26.53 27.88 28.53
29.72 31.53 27.15 25.25 21.90 26.92 28.61 27.88 28.18 26.09 25.94 25.99 26.47 26.57 25.36 24.03 22.79 19.05 17.55 18.09 17.14 17.62 18.47 18.70 19.90 21.54 23.00 22.96 21.28 19.68 18.79 20.14 21.68 20.73 17.18 14.31 22.45 22.56 21.92 19.54 18.56 19.14 22.62 23.48
29.29 29.72 26.88 25.86 26.38 25.14 25.07 25.16 24.13 23.07 23.45 24.36 24.72 24.91 24.38 23.16 22.60 21.64 18.92 16.87 18.37 18.09 17.26 17.50 17.77 20.23 22.08 22.41 17.63 15.18 15.31 12.53 11.41 13.14 14.86 14.88 16.51 18.79 17.91 15.42 14.07 14.57 15.94 16.72
26.39 26.77 25.99 24.56 23.84 23.25 23.08 22.64 22.01 21.10 21.96 22.58 22.25 22.58 23.94 22.75 22.92 21.51 20.22 18.78 16.98 15.79 17.13 17.13 16.82 20.07 22.14 20.16 18.18 14.62 13.72 17.56 16.49 17.13 16.40 15.66 15.13 14.38 13.49 13.33 12.95 12.41 11.84 12.64
24.36 22.55 22.40 22.47 23.12 21.73 20.85 21.23 20.84 19.68 20.63 21.34 20.99 21.05 20.72 20.95 19.16 16.37 12.30 10.62 10.75 11.06 14.63 17.37 18.57 21.09 22.28 24.05 21.63 18.49 16.71 18.00 16.63 17.55 16.27 15.42 14.87 14.18 13.43 12.17 11.50 11.50 10.82 10.23
21.94 20.76 20.21 21.24 21.06 20.76 20.01 20.38 19.05 18.86 18.41 19.34 17.09 14.72 12.74 11.99 9.84 8.57 8.39 7.42 9.16 10.80 12.86 16.80 19.80 22.62 22.72 23.49 23.64 21.15 18.83 18.94 18.59 16.86 16.08 14.51 14.63 14.01 11.56 11.40 11.21 10.36 9.21 10.67
20.77 19.37 19.65 19.91 19.88 18.82 18.10 17.81 17.01 17.36 16.88 16.06 14.17 11.21 10.82 11.17 13.43 9.75 8.65 10.05 12.10 13.03 13.88 18.57 21.26 21.59 22.24 23.87 22.46 19.74 18.94 17.71 17.95 17.14 16.52 12.49 11.40 11.85 8.40 7.13 6.46 5.94 7.64 7.46
19.15 18.63 17.88 16.45 16.40 16.84 14.92 14.61 15.75 14.13 14.27 13.88 12.90 12.84 12.29 11.76 9.04 7.15 10.58 9.58 9.81 15.29 17.87 18.90 19.33 20.02 21.46 22.50 21.44 21.52 19.27 18.00 18.71 16.78 15.73 14.09 10.78 6.56 7.38 6.64 6.04 3.32 2.27 4.18
16.71 16.91 15.31 14.44 12.23 10.62 7.44 8.75 9.24 11.47 9.68 6.72 10.47 5.58 4.59 6.33 7.12 6.03 9.86 11.63 14.04 16.45 17.02 17.35 17.65 17.57 19.73 20.64 21.16 19.25 16.92 14.62 14.76 14.39 13.65 10.62 10.94 9.62 5.38 2.70 1.16 -0.79 -0.22 0.14
6.59 6.76 4.02 6.25 7.93 5.02 4.32 5.00 8.27 3.56 4.46 4.21 0.52 2.21 4.70 7.58 6.98 7.50 7.68 9.36 14.04 12.05 14.41 15.89 16.19 16.04 17.12 17.70 18.84 17.63 17.81 16.20 13.23 13.57 11.56 10.82 9.33 7.72 1.71 0.22 -1.68 -4.18 -3.12 -2.93
5.13 5.85 3.75 2.69 4.30 4.41 -0.31 0.65 -1.66 -0.78 -0.01 -2.19 1.43 3.95 4.34 6.64 6.68 6.80 7.07 12.61 12.84 11.88 12.66 12.48 11.93 13.45 14.18 15.15 15.72 15.37 15.18 14.31 14.16 12.59 11.19 9.74 8.66 6.33 4.30 3.94 2.53 -2.29 -2.10 0.03
5.39 5.88 4.82 4.44 2.34 6.16 6.67 3.97 1.35 2.48 -0.74 0.35 -1.10 -3.09 2.34 1.62 3.11 9.10 8.71 5.78 5.13 5.46 5.29 10.00 9.36 12.07 10.77 12.11 12.83 13.19 13.19 12.34 12.36 11.50 11.47 9.98 7.74 6.65 6.44 2.71 3.91 -0.50 -2.97 1.59
8.46 5.82 5.29 6.34 7.43 6.49 8.14 4.66 3.96 6.49 5.52 2.47 1.40 4.79 6.76 5.53 2.76 5.17 -0.56 0.49 4.48 3.16 3.46 3.39 5.37 6.40 9.24 10.14 9.97 9.98 10.20 10.38 10.57 10.38 10.02 9.13 8.24 6.98 6.44 6.43 2.74 0.38 -0.16 -0.34
10.78 9.28 5.91 5.51 6.85 6.65 9.46 8.13 5.06 3.77 7.83 7.67 6.58 2.82 4.02 4.95 7.08 5.89 -0.92 -2.20 -0.38 1.04 -0.19 -1.64 -0.93 0.97 2.23 5.61 7.36 8.02 8.72 9.20 8.89 9.43 7.70 6.99 5.57 2.95 2.07 3.26 1.66 1.46 -0.15 -0.17
7.75 8.65 7.80 7.64 6.25 6.08 4.57 2.50 1.43 1.62 4.27 -1.66 -0.22 -0.92 1.06 -3.09 -3.64 -0.56 -3.28 -4.00 -3.82 -5.27 -6.72 -4.54 -2.73 -0.59 0.09 0.49 3.83 6.79 8.00 8.18 7.96 7.13 5.93 5.94 5.19 3.26 2.17 0.04 -0.34 -1.57 -1.05 -0.88

GFSNGP_sfc_wetblb_135.txt.gz
Wetbulb
25.77 26.59 26.03 25.87 25.79 26.34 25.61 26.40 24.12 27.22 26.85 29.95 31.51 33.19 33.64 33.51 33.27 32.91 32.05 31.59 30.78 30.45 31.02 31.74 32.65 32.81 33.85 35.25 36.36 37.29 37.40 38.11 38.91 41.72 43.25 44.77 46.28 48.91 53.21 58.69 59.53 60.03 59.71 59.85
22.74 26.53 25.75 24.06 26.72 28.46 27.55 28.31 28.82 28.00 27.67 32.89 34.20 35.33 32.82 32.36 31.47 30.81 30.59 30.85 30.34 30.14 30.63 31.54 32.14 32.52 33.14 33.69 34.74 35.72 35.50 35.28 36.95 38.45 40.37 41.58 43.20 45.05 46.76 49.57 55.28 57.48 57.44 57.66
20.52 26.30 26.06 22.60 26.19 27.03 26.44 28.77 27.86 23.96 28.60 32.02 31.95 32.91 31.75 31.39 30.79 30.23 29.79 29.97 29.54 29.39 30.41 30.92 31.84 33.32 32.82 33.84 34.83 34.97 34.30 34.12 34.41 35.75 36.59 37.43 39.64 41.15 42.35 45.28 49.86 51.07 55.45 56.14
22.21 25.58 16.87 26.35 31.56 30.53 27.27 28.55 29.09 28.41 29.13 30.62 31.53 33.48 33.61 33.15 30.85 29.11 28.98 29.03 28.79 29.37 30.10 30.96 31.99 32.92 33.68 33.61 33.53 33.79 33.14 33.10 33.65 33.78 34.64 34.77 36.44 37.19 39.05 42.07 43.53 45.75 44.60 47.04
21.85 22.43 25.44 27.50 30.22 27.29 25.86 26.35 28.58 27.78 29.02 30.92 32.51 34.03 32.87 32.66 31.78 30.01 29.19 29.22 29.43 29.86 30.71 31.06 30.87 32.25 32.26 32.18 32.61 32.16 31.33 31.49 31.94 32.64 33.28 34.33 33.43 34.87 36.85 39.16 39.86 39.37 38.69 38.17
24.39 19.28 16.41 25.31 29.65 31.39 30.83 22.97 29.40 30.47 28.79 29.69 31.23 25.73 28.57 31.30 30.62 29.93 29.79 29.36 28.73 29.58 30.67 30.41 31.00 31.99 30.85 30.50 30.89 30.13 30.27 30.64 31.67 32.12 32.13 31.71 33.13 34.00 36.16 37.48 36.91 36.25 34.75 34.28
23.47 21.80 25.08 29.56 30.47 32.15 22.59 24.17 30.88 31.13 30.52 30.70 28.26 30.60 32.55 31.63 29.38 29.53 28.51 27.62 28.59 28.98 28.95 29.46 30.77 31.19 29.80 29.92 28.95 30.37 30.56 30.53 30.89 31.23 31.28 31.29 32.35 33.53 34.14 35.77 35.80 35.03 33.53 33.40
23.59 20.90 18.29 31.41 29.68 26.20 29.22 31.28 32.05 31.97 32.19 32.57 32.13 31.66 30.45 29.68 27.40 27.04 26.42 26.31 27.10 27.13 27.56 29.10 29.74 29.72 28.23 27.63 30.14 30.30 30.07 29.49 29.71 30.52 30.72 30.93 30.70 31.74 32.01 32.65 32.58 32.30 32.06 31.43
26.37 26.07 30.76 32.05 31.26 32.65 32.70 30.69 32.46 32.27 33.18 33.30 30.43 29.19 29.07 28.14 26.66 26.15 25.97 25.84 26.65 26.53 26.96 27.95 28.76 28.81 27.12 27.66 29.93 29.74 28.89 28.47 28.81 29.93 30.37 30.97 30.01 29.35 29.79 30.49 30.05 30.18 29.88 29.01
28.37 28.40 30.99 31.97 32.89 33.31 32.62 32.05 34.09 34.09 33.37 32.73 29.73 28.87 27.63 27.37 26.51 25.73 25.73 24.90 25.94 25.62 25.71 26.14 27.72 27.93 27.36 27.63 29.32 29.12 27.93 27.97 28.58 28.49 28.86 29.36 29.74 29.39 28.08 27.59 27.57 27.43 27.50 26.95
28.11 30.77 31.75 31.90 32.95 32.61 31.73 33.19 33.46 32.69 32.17 31.25 30.08 27.75 26.72 25.65 25.43 25.04 24.34 24.23 24.93 24.63 24.79 25.15 26.75 26.93 27.96 27.87 28.06 27.87 27.75 27.59 27.58 27.70 28.07 28.16 27.68 27.50 27.43 28.51 28.73 27.49 27.53 27.75
26.12 30.06 31.29 31.57 32.97 32.41 32.00 31.37 31.23 29.78 28.76 29.67 29.67 26.98 26.49 25.39 24.84 24.09 23.19 23.37 22.99 23.62 24.06 24.55 25.92 26.54 27.68 28.67 28.28 26.48 26.65 26.69 26.53 26.65 26.35 27.12 27.24 27.15 27.34 26.48 26.64 27.42 28.80 28.46
30.71 32.24 32.12 32.51 32.02 32.17 31.82 30.36 29.14 26.92 27.33 26.54 28.74 27.46 26.13 24.89 24.51 22.93 22.50 22.18 21.42 21.37 22.57 23.47 24.36 25.03 25.73 27.29 27.24 25.66 25.20 25.43 25.46 25.11 25.20 26.23 26.34 24.90 24.06 25.73 24.94 24.76 24.99 26.64
32.76 32.60 29.84 29.00 28.50 30.81 30.75 29.48 28.59 27.13 26.83 26.63 26.45 26.98 26.09 25.02 24.15 21.89 20.04 20.09 20.63 20.98 20.58 20.83 21.91 22.89 24.70 25.63 24.53 23.11 24.23 20.55 23.95 24.10 24.30 24.11 24.16 23.72 23.06 22.41 21.48 21.49 22.64 22.17
31.64 31.35 29.45 27.84 28.06 26.66 27.01 27.09 25.13 24.10 24.40 24.53 25.20 24.72 25.03 23.68 22.77 22.00 21.80 20.70 20.36 19.29 19.14 20.20 20.29 22.09 24.05 24.78 24.07 23.21 25.32 24.83 24.53 24.49 23.39 22.48 23.21 22.95 22.36 21.74 20.89 20.56 22.51 22.14
29.25 28.20 27.79 26.89 25.16 24.65 24.29 23.64 22.67 21.69 22.60 23.00 22.63 22.57 23.58 23.35 22.20 20.51 19.70 19.17 18.00 16.47 16.62 18.31 20.34 21.94 24.10 25.16 25.35 25.11 24.68 22.01 22.36 24.30 23.81 23.31 22.65 21.88 21.41 20.89 20.23 19.34 18.29 18.17
25.80 24.32 24.82 24.49 23.80 22.56 21.57 21.90 21.03 20.41 21.23 21.59 20.87 20.90 21.17 21.30 18.74 17.08 15.86 14.59 15.10 15.11 16.09 18.84 19.24 22.12 24.25 25.87 26.28 25.69 25.00 24.16 21.09 22.83 22.29 21.64 21.26 20.58 20.47 20.39 19.67 18.51 17.54 15.13
24.43 22.90 23.17 23.32 22.26 21.72 20.47 19.89 19.78 19.54 18.87 19.38 17.90 16.03 15.12 15.76 15.09 14.30 13.69 14.83 15.39 16.41 17.88 18.85 20.86 23.49 24.33 25.94 26.22 25.31 24.30 23.50 22.65 21.63 21.00 20.76 19.99 19.61 19.13 18.76 18.26 18.02 18.10 16.44
22.26 21.28 21.31 20.65 20.53 19.41 18.91 17.98 17.24 17.48 16.72 16.87 16.15 15.00 15.90 15.50 14.83 14.47 15.49 15.14 14.94 16.20 17.46 20.50 21.52 22.52 23.46 25.09 25.86 25.33 24.25 23.37 22.24 21.32 20.47 18.60 18.99 17.98 17.61 17.64 16.76 16.66 16.72 15.88
19.49 19.54 18.78 17.26 17.48 17.07 15.08 15.03 16.69 15.36 14.94 15.73 15.34 14.23 13.68 12.83 13.40 14.09 15.22 14.96 15.98 16.71 19.09 19.57 20.19 21.11 22.24 23.42 23.97 25.17 24.58 23.85 22.02 20.94 19.97 18.89 18.03 17.32 15.80 13.18 15.08 15.67 15.55 14.98
17.88 17.04 15.62 14.79 13.68 12.85 11.48 13.02 13.54 13.70 12.24 11.94 13.30 11.42 10.82 11.49 11.32 12.74 14.15 14.22 16.00 16.16 17.63 18.11 18.71 18.96 21.16 21.87 23.99 24.63 23.89 22.73 21.99 21.00 19.65 18.40 17.24 15.77 15.23 14.43 14.28 14.67 14.75 14.66
13.37 12.17 11.22 12.24 13.10 11.92 10.85 12.55 12.62 10.03 10.31 9.82 8.20 8.51 11.39 13.34 12.94 13.94 12.48 13.17 16.62 13.37 16.39 17.35 17.09 15.56 18.05 19.88 21.70 22.40 22.18 21.69 21.33 20.70 19.56 18.52 17.24 15.44 14.60 14.12 13.50 13.24 13.27 13.49
12.57 12.34 11.03 10.22 12.05 13.17 9.47 10.22 8.35 10.36 9.91 9.46 10.02 11.53 13.32 13.91 14.61 13.94 12.68 14.81 15.61 14.03 16.23 15.93 12.13 13.20 14.28 18.98 19.48 19.66 19.60 19.37 19.38 18.86 18.40 17.91 16.77 15.80 14.97 13.90 12.77 12.82 12.67 12.60
12.27 12.86 12.85 10.95 9.68 13.56 14.43 13.57 12.26 10.91 8.62 10.25 9.23 6.28 12.99 15.37 15.85 15.75 15.13 11.78 10.05 10.65 12.05 11.92 11.02 10.73 13.22 16.57 16.58 16.94 17.41 17.57 17.71 17.91 17.17 14.97 15.82 15.20 14.41 13.49 12.84 13.03 12.14 11.59
14.04 11.82 12.19 12.90 14.99 15.26 14.61 13.47 12.83 13.49 13.09 14.72 13.12 13.67 12.79 13.86 14.32 14.04 13.10 12.96 11.14 12.26 13.43 8.77 8.14 9.53 14.04 14.94 14.62 14.64 15.52 15.69 15.37 16.46 16.09 15.61 15.04 14.50 14.28 13.51 12.66 12.75 11.90 11.94
16.80 16.37 15.67 14.42 15.87 16.66 16.31 16.49 14.99 14.45 16.51 16.07 15.44 14.30 14.46 13.89 14.39 14.36 12.94 9.21 11.82 10.33 11.95 11.97 10.96 12.03 12.94 13.02 13.42 13.43 14.05 14.37 14.55 14.03 14.05 13.91 13.36 12.99 12.14 11.75 11.59 11.58 11.26 11.20
14.78 13.09 15.49 15.27 15.08 15.62 15.14 14.46 15.63 14.93 14.85 15.25 15.11 14.00 13.64 13.07 12.13 12.43 8.66 12.37 11.98 11.11 11.15 11.32 11.73 10.46 11.15 11.45 11.73 12.23 12.68 13.20 11.19 12.55 13.01 12.86 12.49 12.20 11.31 10.75 10.71 10.66 10.02 9.71

GFSNGP_sfc_wetblb_138.txt.gz
Wetbulb
29.95 30.15 29.97 29.83 29.38 30.37 28.36 30.58 26.44 31.24 31.49 34.63 34.34 33.65 34.77 35.58 35.99 34.77 33.97 33.08 32.64 30.63 30.85 31.44 31.63 32.29 34.20 34.42 35.73 36.62 37.68 39.20 38.94 42.11 42.72 47.22 47.07 49.56 51.40 54.12 61.79 63.93 63.38 62.87
26.10 29.92 30.04 28.22 30.18 30.42 30.49 31.92 32.57 33.17 32.58 35.99 36.50 36.21 34.34 33.78 33.87 32.86 33.08 32.13 32.17 31.37 31.16 31.08 31.52 32.58 33.24 33.68 35.15 36.13 34.91 34.71 36.96 37.71 38.63 40.05 42.63 44.78 46.30 48.67 52.83 59.02 60.08 60.43
24.54 29.83 29.14 25.10 29.19 30.46 32.03 32.16 31.31 27.04 31.43 32.89 33.21 32.82 33.48 32.29 33.19 31.67 32.41 31.75 31.73 31.59 31.41 31.60 32.21 33.26 32.77 34.15 35.17 34.77 33.24 34.28 35.06 35.42 36.05 37.04 39.37 40.80 41.93 44.71 47.83 48.82 49.47 55.17
26.50 28.07 19.15 30.55 36.04 35.96 32.73 32.17 33.19 31.19 31.46 31.44 32.42 34.08 34.65 34.40 32.15 32.16 32.43 31.73 31.37 31.71 31.43 31.62 33.24 33.41 33.78 34.63 34.75 34.52 34.19 34.44 34.27 34.50 34.69 36.10 36.57 37.87 39.29 41.37 42.99 42.40 42.58 45.36
24.77 25.32 28.59 29.34 32.53 32.28 30.26 29.22 33.33 30.34 31.27 32.01 33.33 36.00 34.20 34.48 33.61 33.39 33.11 32.87 32.36 32.65 32.28 32.39 32.07 33.45 33.39 32.47 33.06 33.21 32.95 33.34 33.78 34.59 34.23 34.85 34.54 36.38 38.61 38.37 38.61 37.99 37.70 37.41
27.48 22.05 19.53 31.00 34.22 35.17 35.23 28.02 34.23 32.41 31.53 31.08 32.08 29.13 32.83 32.87 33.81 33.09 33.82 33.12 32.39 33.23 32.89 31.74 31.92 33.29 32.28 31.39 31.36 31.23 31.99 32.66 33.67 34.51 34.35 33.63 34.83 35.43 37.31 38.05 36.34 35.59 34.40 33.78
26.48 24.89 27.77 34.31 34.44 36.19 26.07 28.82 34.18 32.30 31.89 31.89 30.03 31.74 33.25 33.65 33.53 33.44 33.26 32.24 32.86 33.02 31.89 31.27 32.32 32.37 31.74 31.49 30.50 31.40 32.50 33.20 33.81 33.65 33.57 33.96 34.04 34.42 35.41 36.49 36.21 35.39 34.02 34.32
27.35 24.17 21.83 35.61 34.04 29.77 34.00 35.76 35.35 34.67 33.27 32.77 32.80 32.92 32.78 33.05 32.56 31.90 31.83 31.69 32.05 31.57 31.33 31.90 31.52 31.46 31.03 30.11 31.86 33.09 33.00 32.82 33.16 32.99 32.16 32.77 32.57 33.44 33.50 34.20 34.24 34.09 33.84 33.87
30.52 30.88 36.46 37.37 36.38 37.49 36.66 34.78 35.99 35.30 34.86 33.44 31.41 31.11 32.54 32.07 32.01 31.19 30.47 30.72 31.39 30.81 30.60 30.98 30.61 30.87 30.52 30.74 31.69 32.81 33.22 32.54 32.50 32.42 31.85 31.61 30.53 30.68 31.64 32.80 32.20 31.47 31.59 30.75
31.37 32.81 35.16 36.36 37.28 37.51 37.21 36.23 36.98 36.86 35.28 33.61 30.86 30.96 31.48 31.44 30.93 30.26 29.74 28.75 29.56 29.94 29.08 28.40 29.86 30.20 30.57 31.26 31.81 32.32 32.10 31.81 32.77 31.93 31.71 30.42 30.46 29.44 28.16 28.99 30.65 30.28 29.63 29.72
31.05 34.75 35.18 36.01 37.09 37.41 36.00 36.47 36.04 34.85 34.61 33.33 31.75 29.91 30.44 30.01 29.02 28.94 28.80 28.22 28.07 27.23 27.54 27.93 29.14 29.28 29.73 30.48 32.29 30.85 31.03 30.96 31.72 32.09 31.36 30.85 29.21 27.88 27.93 27.48 27.38 28.40 29.08 28.90
30.97 34.77 34.38 35.37 37.69 36.97 35.26 34.58 34.31 33.52 32.34 32.82 30.91 29.25 30.13 29.03 28.27 27.71 27.10 27.59 26.42 26.21 26.21 26.75 28.15 28.71 29.64 29.92 30.64 30.52 29.96 30.05 29.42 30.85 31.53 30.84 30.26 30.20 26.81 26.07 25.93 26.25 27.83 28.44
34.62 37.21 37.42 37.37 37.08 36.49 34.06 32.22 31.74 30.04 30.26 29.82 29.47 29.07 28.12 27.87 26.44 25.03 25.37 24.73 23.90 24.18 24.80 25.49 25.91 26.72 27.90 29.12 29.49 28.46 28.23 28.90 29.92 29.95 29.01 28.55 28.84 27.89 27.62 28.64 26.75 24.96 25.31 26.53
37.16 36.37 32.63 33.76 31.43 34.23 32.80 31.48 30.60 30.24 30.21 29.23 28.35 28.19 27.61 26.84 25.82 24.82 23.18 23.13 22.87 22.39 22.16 23.65 24.62 25.25 27.11 28.33 28.32 27.80 28.45 27.20 29.29 29.09 29.42 29.04 28.33 28.02 28.16 27.46 27.12 27.35 26.21 24.89
36.15 35.98 34.17 32.30 32.25 31.44 31.71 30.96 29.18 28.28 27.94 27.61 27.60 26.57 26.49 25.57 24.49 23.75 23.71 22.56 22.65 22.07 20.92 21.69 22.71 24.51 26.29 27.93 28.47 27.90 28.22 28.42 28.95 29.30 28.85 28.28 29.00 28.89 28.74 28.38 27.77 27.59 28.14 27.35
32.85 32.45 32.28 32.07 30.59 29.64 28.88 28.10 27.00 26.05 25.98 25.87 24.65 24.41 24.82 24.80 24.18 23.67 22.93 21.44 20.19 20.01 19.99 21.60 22.67 24.28 26.39 28.02 29.02 28.74 28.77 25.41 26.82 29.03 28.72 28.50 28.48 27.77 27.62 27.57 27.11 26.23 23.98 23.46
30.93 28.61 30.14 29.24 28.38 27.23 26.21 25.89 24.90 24.04 24.42 24.13 23.04 23.28 24.16 22.88 21.87 19.95 19.29 19.47 20.23 20.69 22.19 22.62 22.58 25.16 26.72 28.29 29.01 28.53 28.12 27.83 25.92 27.96 27.58 27.40 27.09 26.48 26.61 26.24 25.54 25.20 23.26 21.96
31.91 30.79 30.48 29.73 27.86 26.15 24.16 23.17 23.21 22.94 21.89 21.45 20.40 19.85 19.37 18.97 17.95 17.63 18.35 19.80 20.47 21.55 21.98 23.11 23.73 25.24 26.62 27.36 27.79 27.50 26.76 25.95 25.63 25.44 25.35 25.05 25.53 25.73 25.43 24.97 24.68 24.23 24.38 23.12
28.98 27.15 26.53 25.47 25.55 24.61 22.92 20.99 20.54 19.73 19.58 20.10 19.46 18.30 17.75 17.30 17.91 18.26 19.52 18.41 18.80 19.32 20.09 22.67 23.10 24.84 25.50 26.22 26.99 27.93 27.09 26.28 25.13 24.56 24.33 23.80 24.12 23.91 24.07 24.13 23.76 23.48 23.33 22.77
24.95 24.66 23.44 21.94 21.78 20.71 18.58 19.63 20.34 18.76 20.12 19.42 18.26 17.57 16.86 16.14 16.59 17.39 18.96 18.34 18.56 18.37 20.82 21.48 22.88 23.57 24.76 25.96 26.75 27.19 26.87 26.23 25.00 24.33 23.71 23.33 23.17 22.68 22.40 20.09 21.75 22.49 22.86 22.28
21.81 21.12 19.29 18.12 16.70 16.85 17.13 18.19 18.69 18.17 17.68 17.51 17.02 15.31 15.45 16.27 16.32 16.84 18.45 18.75 19.24 18.65 21.09 21.34 21.95 21.82 24.28 24.67 26.26 27.32 26.79 25.93 25.09 24.31 23.60 22.98 22.47 21.26 20.87 20.93 21.04 20.99 21.11 20.98
19.02 17.28 16.68 16.92 16.73 16.29 17.21 18.35 17.96 16.72 16.78 15.61 14.27 15.48 16.92 18.00 17.97 17.48 16.31 16.69 19.64 16.48 20.56 20.95 20.54 18.10 21.48 23.66 24.82 25.29 24.88 24.70 24.30 24.04 23.12 22.47 21.85 21.01 20.37 19.78 19.47 19.51 19.20 19.32
18.15 17.84 17.16 16.58 17.61 17.65 17.31 16.77 16.61 16.87 15.92 15.87 15.66 17.10 18.20 18.86 19.48 18.32 17.10 18.21 19.32 17.46 19.93 19.55 15.91 16.02 20.40 23.14 23.27 23.40 23.12 22.90 22.77 22.42 21.99 21.60 21.15 20.60 20.08 19.21 18.98 18.71 18.42 18.45
18.98 19.08 18.92 18.71 17.27 18.32 18.17 18.48 19.40 17.68 16.15 17.24 15.25 14.58 18.93 20.00 19.56 19.52 20.05 17.78 15.43 17.04 17.76 16.15 15.60 16.25 19.08 21.12 21.00 20.93 21.11 21.52 21.51 21.54 21.30 19.87 20.53 19.63 19.17 18.36 17.64 18.00 17.57 16.64
19.47 19.54 18.91 18.68 19.83 21.33 20.49 20.14 18.80 18.57 18.49 19.52 18.63 19.00 18.43 19.96 18.69 18.64 18.79 18.25 15.77 17.45 18.66 15.08 14.90 16.79 19.10 19.44 19.05 19.26 19.53 19.49 19.12 19.92 19.64 19.35 19.01 18.71 18.34 17.53 16.92 16.86 16.75 16.52
21.13 22.12 22.30 21.76 22.91 22.84 22.50 21.93 21.43 21.23 21.10 20.03 20.20 21.10 20.78 20.65 20.26 19.86 18.70 16.05 16.73 16.21 17.36 17.57 16.49 17.48 17.76 17.47 17.47 17.29 17.87 17.66 18.15 17.94 18.01 17.85 17.60 17.04 16.39 16.08 16.14 16.32 16.17 15.83
21.68 20.55 20.85 20.88 21.99 21.89 22.27 21.85 21.03 20.03 20.58 21.41 19.55 20.89 20.54 20.85 19.31 18.52 16.38 18.28 17.98 17.12 17.10 17.00 16.96 15.74 16.27 16.42 15.99 16.38 16.47 16.80 14.80 16.26 16.61 16.50 16.49 16.00 15.59 15.40 15.41 15.53 15.24 14.85

GFSNGP_sfc_wetblb_141.txt.gz
Wetbulb
33.10 33.55 34.45 34.23 33.33 34.12 31.50 31.41 28.07 32.54 32.95 37.32 37.86 36.63 37.09 37.40 38.27 37.75 37.20 36.67 35.18 33.96 32.94 32.38 32.15 32.50 33.48 34.02 35.23 36.47 36.77 36.87 36.86 39.23 42.92 43.41 44.52 46.84 50.32 51.91 55.17 60.23 63.44 61.64
29.89 32.86 32.28 30.55 32.55 33.00 32.73 32.87 33.19 34.61 34.70 38.87 39.75 39.37 37.34 35.49 37.04 35.84 35.83 35.97 34.61 34.73 34.21 32.71 32.58 32.88 34.01 33.88 34.76 36.02 35.61 35.64 36.35 37.16 38.47 40.19 41.00 42.77 45.23 47.59 50.41 50.87 52.13 61.62
27.79 31.44 30.56 26.76 30.23 31.79 33.84 34.07 34.10 30.63 35.37 37.64 35.84 35.96 35.94 34.68 36.37 35.28 35.62 35.59 34.77 35.15 34.67 34.15 33.91 34.33 34.28 34.13 35.31 35.36 34.66 35.01 35.40 36.14 36.13 37.45 39.76 39.58 41.37 42.26 44.53 43.97 45.66 46.29
28.71 30.29 20.21 33.52 38.00 37.58 34.51 34.79 37.13 36.47 36.16 35.45 35.45 37.33 36.56 36.85 36.09 35.61 36.09 35.69 35.66 35.66 35.31 34.56 34.64 34.71 35.42 35.00 34.36 35.14 34.85 34.67 34.50 33.45 35.51 36.58 36.03 36.97 39.26 39.97 40.02 39.87 39.59 41.75
27.02 26.77 31.03 31.48 34.47 34.71 33.88 33.66 38.75 35.31 34.61 35.54 36.92 38.07 35.92 38.02 37.48 36.68 36.70 36.68 36.26 36.96 36.75 35.62 34.05 34.67 34.96 34.60 34.27 33.18 33.58 33.96 34.94 34.76 34.70 33.94 33.72 34.97 37.60 37.11 36.66 35.69 36.12 34.46
29.04 24.38 21.73 33.27 37.71 38.76 37.67 28.78 38.40 36.25 34.56 33.58 35.30 32.43 36.58 36.63 37.27 37.24 37.44 37.20 35.99 36.71 37.14 35.65 34.15 34.78 34.69 33.66 33.10 32.66 32.87 34.39 35.04 34.90 34.90 33.62 34.48 34.24 36.29 36.92 35.78 35.13 33.78 33.72
28.37 26.43 30.69 37.49 37.57 38.87 26.92 30.43 37.41 36.34 35.57 34.93 31.59 33.45 35.12 36.20 37.04 37.62 36.94 36.55 36.34 36.62 35.43 35.07 34.69 34.35 33.62 33.12 31.63 33.98 34.95 35.14 35.09 34.44 33.85 33.44 34.09 34.51 35.05 35.27 34.65 33.81 33.07 33.10
29.67 26.01 23.73 38.83 36.91 31.38 36.15 39.05 38.74 37.69 36.62 35.23 35.27 34.45 35.12 36.31 36.30 36.07 35.20 35.18 35.42 35.20 34.57 34.52 34.41 33.16 32.33 31.10 33.07 34.48 35.33 34.57 34.49 34.89 33.51 33.10 32.00 32.68 33.56 33.95 33.35 33.55 32.70 31.97
31.68 31.87 38.50 39.91 39.10 40.50 39.99 38.49 38.86 37.92 37.94 34.70 32.91 32.95 35.01 35.19 35.64 35.18 34.47 34.10 34.56 34.03 33.81 33.66 33.20 32.71 30.65 31.38 32.82 33.66 34.07 33.86 34.23 33.84 33.49 32.67 31.14 29.50 29.48 31.28 32.13 31.35 30.84 30.59
33.75 36.11 37.34 38.40 39.84 40.20 40.20 39.57 39.73 39.17 37.55 35.39 32.69 32.60 33.71 34.64 34.37 33.96 33.61 32.33 32.83 32.19 31.31 31.29 31.97 31.94 31.67 32.29 33.15 33.37 32.63 32.43 33.86 33.20 32.74 31.81 30.98 29.78 27.16 26.82 28.65 29.00 30.20 29.10
34.07 36.43 37.79 38.53 39.33 40.02 39.29 39.52 38.92 37.72 37.27 35.77 33.77 31.70 32.59 32.53 32.29 32.09 31.74 31.68 31.18 29.89 28.90 28.94 30.24 30.51 30.73 30.96 31.76 31.18 32.23 31.91 31.24 32.44 31.95 32.09 29.10 28.53 28.17 26.71 27.05 26.70 27.14 29.06
33.13 38.23 37.48 37.64 40.07 40.19 38.25 36.61 36.68 36.25 35.27 35.59 33.08 31.48 32.15 31.05 30.15 30.05 29.26 29.12 28.47 27.62 27.32 27.55 28.49 28.70 29.40 29.94 30.13 29.61 29.63 29.33 31.04 31.56 31.22 31.30 30.45 29.66 27.24 27.07 26.69 27.33 27.73 27.83
35.89 39.38 39.46 40.09 40.03 39.50 36.44 34.98 34.64 32.28 33.10 32.47 30.85 30.53 29.34 29.32 27.54 26.47 26.22 25.82 24.87 24.59 24.99 25.46 26.36 27.21 28.05 28.96 29.43 28.52 28.03 28.50 29.46 29.23 29.55 28.96 28.86 28.63 28.36 28.25 27.53 27.32 27.62 28.09
40.16 38.90 35.60 36.02 33.76 36.00 34.97 33.60 32.96 33.71 33.37 31.50 30.58 30.15 28.87 28.38 28.18 26.54 24.29 23.91 23.86 24.21 22.91 24.05 24.73 25.96 27.44 28.92 29.76 28.91 28.97 28.39 29.41 29.29 29.09 29.48 29.52 29.48 29.58 28.24 27.68 28.55 28.91 28.14
38.41 38.96 36.74 34.63 34.24 33.65 34.53 34.18 32.77 32.18 31.33 30.51 30.55 28.59 27.69 26.85 26.20 25.46 25.42 23.57 23.81 23.90 22.50 23.50 23.78 25.19 27.85 29.29 29.71 29.72 29.60 28.58 29.93 30.67 30.50 29.74 29.93 29.52 29.25 29.01 28.00 26.71 26.95 28.02
36.81 36.53 36.10 34.45 33.91 33.58 32.80 31.78 30.71 29.77 29.46 28.77 27.71 26.71 26.42 26.65 26.15 25.61 24.57 23.32 21.58 21.57 22.45 23.13 23.47 25.43 27.93 29.42 30.10 29.95 30.06 28.14 28.63 29.44 29.58 28.95 29.26 28.36 27.53 27.47 27.05 26.26 23.89 24.39
33.53 32.06 32.66 31.91 32.37 31.38 30.26 29.73 28.89 27.93 27.76 26.25 24.67 24.71 25.08 24.79 23.43 21.32 21.37 22.31 22.96 23.55 23.32 23.65 23.38 26.08 27.80 28.53 29.29 29.01 29.16 28.50 27.73 27.79 27.22 27.34 27.42 27.06 27.11 26.93 26.51 25.72 25.08 25.75
36.72 36.25 35.73 34.45 32.17 30.05 28.04 27.36 27.19 26.56 24.10 22.91 22.36 21.78 20.38 19.32 19.23 19.56 20.83 21.88 22.20 23.13 22.29 23.69 24.29 26.25 27.24 27.42 27.90 29.26 28.54 27.47 27.00 26.33 26.31 26.07 25.87 26.28 26.04 25.64 25.08 24.87 25.17 25.36
33.80 31.77 31.18 30.42 30.43 28.68 26.34 24.13 22.49 21.86 21.94 22.05 21.22 19.25 18.75 18.75 19.26 19.93 21.62 20.57 20.22 19.63 21.04 23.30 23.95 25.09 26.22 26.78 27.33 28.76 28.51 27.73 26.69 25.69 25.64 25.46 25.36 24.00 23.84 24.78 24.55 24.46 24.39 23.88
29.63 29.13 27.82 25.83 25.39 23.87 21.48 22.16 22.24 21.82 21.76 21.01 20.08 19.16 18.73 17.34 17.96 19.61 21.53 20.64 20.08 19.31 22.76 23.08 23.52 23.10 24.89 25.93 27.22 28.69 27.92 27.38 26.35 26.24 25.27 24.42 24.33 24.10 23.96 22.91 22.72 23.15 23.25 23.24
25.24 24.04 21.44 19.99 19.33 20.12 20.37 21.51 21.29 20.29 19.80 19.35 18.56 17.14 16.98 18.10 17.76 18.40 20.34 20.28 20.91 20.19 22.51 22.41 21.60 20.89 23.44 24.97 26.31 27.86 27.66 27.06 26.27 25.50 24.75 24.63 24.02 23.49 22.97 22.79 22.37 21.76 21.52 21.89
21.65 19.93 19.00 19.46 19.72 19.39 20.40 21.27 20.58 19.11 18.38 17.12 16.54 17.69 19.35 21.37 20.79 18.95 17.85 18.44 21.26 19.08 21.82 21.01 20.15 20.07 22.62 24.28 25.31 25.70 25.43 25.43 25.21 24.86 23.86 23.44 23.06 22.58 22.12 21.71 21.07 21.05 20.94 20.96
20.67 20.36 19.71 18.38 18.71 19.45 19.33 19.32 18.92 18.64 17.83 17.75 18.19 19.72 20.20 20.85 20.74 19.64 18.29 20.13 20.47 19.71 20.39 19.63 18.14 19.48 21.70 23.33 23.38 23.35 23.56 23.64 23.66 23.41 23.04 22.71 21.65 21.35 20.93 19.66 20.21 19.72 19.22 19.52
21.19 20.80 20.82 21.69 19.84 19.91 19.00 19.78 20.85 19.40 18.36 18.69 17.46 17.88 20.86 22.97 22.65 21.66 22.28 20.57 18.16 20.19 20.44 18.16 18.30 19.45 20.62 21.47 21.47 21.57 21.36 20.71 21.99 22.05 21.80 21.60 21.56 21.11 20.18 19.50 19.36 19.67 19.33 18.64
21.88 21.69 21.25 20.19 21.74 22.79 22.34 21.65 21.13 20.36 20.54 21.06 20.73 20.91 20.52 21.45 20.47 20.22 20.27 20.42 18.95 19.23 20.53 18.26 17.76 19.25 20.02 20.04 19.79 19.86 20.29 20.01 19.84 20.61 20.56 20.22 19.84 19.45 19.44 19.08 18.03 17.88 18.45 18.04
23.13 23.94 24.27 24.51 26.15 25.20 24.70 23.36 23.21 23.24 23.43 22.25 21.92 23.51 23.11 23.08 22.73 22.22 21.86 18.60 19.68 18.78 19.25 20.00 18.83 18.79 19.20 18.78 18.44 18.55 19.20 18.09 18.42 19.05 18.91 18.64 18.90 18.03 17.60 17.52 17.69 17.25 16.78 16.45
25.18 24.78 24.28 24.51 25.53 25.60 25.82 24.95 23.47 22.31 23.03 24.31 21.90 22.33 22.39 22.91 21.60 20.47 18.43 20.76 20.08 19.65 19.56 19.28 19.24 17.61 17.43 17.85 17.91 17.77 17.76 17.86 16.71 16.75 17.78 17.69 17.47 17.12 16.49 16.49 16.45 16.63 16.75 16.10